{"data":{"norad_id":49190,"intl_designator":"2021-083E","name":"ONEWEB-0320","alt_names":[],"object_type":"PAYLOAD","status":"ACTIVE","operator":null,"country":"UK","launch_date":"2021-09-14","launch_site_code":"TYMSC","launch_vehicle":null,"mission":null,"orbit_class":"UNKNOWN","rcs_meters":null,"size_class":null,"mass_kg":null,"dimensions":null,"purposes":["comms"],"wikipedia_slug":null,"has_3d_model":false,"image_url":null,"decayed_at":null,"tle_current":{"epoch":"2026-05-25T02:17:50.936352Z","epoch_age_seconds":64006,"freshness":"FRESH","line1":"1 49190U 21083E   26145.09572843  .00000033  00000+0  50313-4 0  9994","line2":"2 49190  87.9160 340.0595 0001787  87.9606 272.1731 13.18687180226939","mean_motion":13.1868718,"eccentricity":0.0001787,"inclination_deg":87.916,"raan_deg":340.0595,"arg_perigee_deg":87.9606,"mean_anomaly_deg":272.1731,"bstar":5.0313e-5,"rev_number":22693,"period_min":109.19951462636,"perigee_km":1188.3862328535,"apogee_km":1191.0909915973,"semimajor_km":7567.8756122254,"source":"CELESTRAK","updated_at":"2026-05-25T13:38:22.489522Z"}}}